ONEWEB-0017, 45132

Orbit data source: Space-Track

ONEWEB-0017, 45132 is a payload satellite owned by One Web (UK) in LEO that was launched on Thu, 06 Feb 2020 UTC via a SOYUZ-2-1B launch vehicle from the Tyuratam Missile And Space Complex (TTMTR). Payloads include a variety of satellites, spacecraft, and rockets equipped with specific instruments for various scientific and technological missions. These include communications satellites like Starlink; space stations such as the ISS; scientific satellites like the Hubble; Earth observation satellites from companies like Planet Labs, Umbra, and HawkEye 360; GPS; miniature CubeSats for education and research; and military/defense satellites.

Loading next visibility...
ONEWEB-0017 details
Identifier
45132, 2020-008B
Orbit
LEO
Last TLE update18 hours ago
Origin
Flag of UKOne Web (UK)
ManufacturerOne Web
MissionOperational Commercial Communications
Bus & MotorARROW, Unknown motor
Mass148 kg wet, ~140 kg dry
Launch date (UTC)
2020-02-06 (5 years ago)
Launch vehicle
SOYUZ-2-1B
Launch site
Tyuratam Missile And Space Complex (TTMTR)
Object type
Payload
Rocket body
Debris
Shape & HBRTrap Box + 2 Pan, 5 m
Radar Cross Section2.957 m², Large (>1 m²)

Expand to show TLE details & history

TLE from 18 hours ago
0 ONEWEB-0017
1 45132U 20008B   24360.67934398 -.00000126  00000-0 -39646-3 0  9991
2 45132  87.8904 143.5404 0001390 109.2822 250.8456 13.10375284238198
Epoch: 2024-12-25T16:18Z
Definitive object data (Epoch: 2024-12-25T16:18:15.319Z)
Latitude-0.00002°
Longitude164.30694°
Altitude1,224.942 km
Speed7.242 km/s
True Right ascension09h 34m 09s
True Declination0° 00' 00"
Sunlit
Object was in full shadow at TLE epoch
Visualization TLE readout
Latitude-0.16629°
Longitude164.14941°
Altitude1,224.932 km
Speed7.242 km/s
Apparent Right ascension08h 48m 38s
Apparent Declination-55° 44' 22"
Sunlit
Object is in full shadow
Visualization observer readout
Local Sidereal Time09:58:58
Azimuth189.861° SSW
Elevation-6.818°
Doppler factor1
Orbital elements
Apogee altitude1,219.883 km
Perigee altitude1,217.771 km
Semi-major axis7,596.964 km
Eccentricity0.000139
Inclination87.8904°
RAAN143.5404°
Arg. of periapsis109.2822°
True anomaly250.83055°
Mean anomaly250.8456°
Eccentric anomaly250.83808°
Mean motion3.2778 °/min
BSTAR-0.00039646
Orbital period109.83 mins
Loading maneuver chart data...
Loading historical data...
Loading historical data...
Loading historical data...
Loading historical data...
Loading historical data...
Loading historical data...
Loading historical data...

ONEWEB-0017 Visibility forecast

Observer location: undefined°, undefined

Span
Click to sort rows by Start time (UTC) header in descending order
Start Az.
Max El. time (UTC)
Max El. Az.
Max El.
End time (UTC)
End Az.
13 mins2024-12-26 10:43:45.061Z198.781° SSW2024-12-26 10:49:45.061Z265.55° W39.779°2024-12-26 10:56:45.061Z351.29° N
9 mins2024-12-26 20:25:45.061Z38.306° NE2024-12-26 20:29:45.061Z76.502° E19.329°2024-12-26 20:34:45.061Z120.272° SE
12 mins2024-12-26 22:14:45.061Z352.289° N2024-12-26 22:19:45.061Z298.6° NW42.851°2024-12-26 22:26:45.061Z192.66° SSW
9 mins2024-12-27 08:45:45.061Z117.261° SE2024-12-27 08:49:45.061Z79.305° E21.596°2024-12-27 08:54:45.061Z31.536° NE
4 mins2024-12-27 10:33:45.061Z196.467° SSW2024-12-27 10:37:45.061Z224.164° SW37.722°2024-12-27 10:37:45.061Z224.164° SW
|